Paynesville, MN

12:31 PM CDT on June 26, 2017 (GMT -0500)
Paynesville

Weather History for KPEX - December, 2013

Change the Weather History Date:

Tuesday, December 17, 2013

  Actual Average (KLJF) Record (KLJF)
Temperature  
Mean Temperature 16 °F -  
Max Temperature 32 °F 25 °F 50 °F (1962)
Min Temperature 1 °F 10 °F -22 °F (1983)
Degree Days  
Heating Degree Days 48    
Moisture  
Dew Point 13 °F    
Average Humidity 79    
Maximum Humidity 90    
Minimum Humidity 63    
Precipitation  
Precipitation 0.00 in - - ()
Sea Level Pressure  
Sea Level Pressure 29.99 in    
Wind  
Wind Speed 15 mph (WNW)    
Max Wind Speed 23 mph    
Max Gust Speed 31 mph    
Visibility 9 miles    
Events Snow    
Averages and records for this station are not official NWS values.
T = Trace of Precipitation, MM = Missing Value Source: NWS Daily Summary

Daily Weather History Graph

Daily Weather History Graph

Search for Another Location

Airport or City:

Trip Planner

Search our weather history database for the weather conditions in past years. The results will help you decide how hot, cold, wet, or windy it might be!

Date:

Astronomy

Dec. 17, 2013 Rise Set
Actual Time 7:53 AM CST 4:37 PM CST
Civil Twilight 7:19 AM CST 5:11 PM CST
Nautical Twilight 6:41 AM CST 5:48 PM CST
Astronomical Twilight 6:05 AM CST 6:24 PM CST
Moon 5:20 PM CST (12/17) 7:47 AM CST (12/17)
Length of Visible Light 9h 52m
Length of Day
8h 43m
Full, 100% of the Moon is Illuminated
Dec 17
Full
Dec 25
Last Quarter
Jan 1
New
Jan 7
First Quarter
Jan 15
Full

Hourly Weather History & Observations

Time (CST) Temp. Windchill Dew Point Humidity Pressure Visibility Wind Dir Wind Speed Gust Speed Precip Events Conditions
12:12 AM 29.7 °F 17.8 °F 24.6 °F 81% 29.88 in 10.0 mi West 17.3 mph 24.2 mph N/A   Scattered Clouds
12:32 AM 30.2 °F 18.5 °F 25.3 °F 82% 29.88 in 7.0 mi West 17.3 mph - N/A Snow Light Snow
12:53 AM 30.6 °F 19.4 °F 26.1 °F 83% 29.87 in 10.0 mi West 16.1 mph - N/A   Mostly Cloudy
1:12 AM 31.6 °F 20.0 °F 26.6 °F 82% 29.87 in 10.0 mi West 18.4 mph - N/A   Overcast
1:33 AM 32.0 °F 20.1 °F 26.2 °F 79% 29.87 in 10.0 mi West 19.6 mph 28.8 mph N/A   Mostly Cloudy
1:53 AM 32.0 °F 19.8 °F 26.8 °F 81% 29.87 in 7.0 mi West 20.7 mph - N/A Snow Light Snow
2:13 AM 32.0 °F 19.2 °F 26.4 °F 80% 29.88 in 7.0 mi West 23.0 mph 28.8 mph N/A   Overcast
2:32 AM 31.5 °F 19.1 °F 26.1 °F 80% 29.89 in 7.0 mi West 20.7 mph 28.8 mph N/A   Overcast
2:52 AM 31.1 °F 20.1 °F 25.7 °F 80% 29.89 in 10.0 mi WNW 16.1 mph - N/A   Mostly Cloudy
3:13 AM 30.7 °F 19.6 °F 25.3 °F 80% 29.89 in 10.0 mi West 16.1 mph 23.0 mph N/A   Overcast
3:33 AM 29.3 °F 18.2 °F 24.6 °F 83% 29.89 in 10.0 mi West 15.0 mph 19.6 mph N/A   Mostly Cloudy
3:52 AM 28.4 °F 16.6 °F 23.9 °F 83% 29.90 in 10.0 mi West 16.1 mph 21.9 mph N/A   Scattered Clouds
4:13 AM 27.9 °F 14.7 °F 23.5 °F 84% 29.90 in 10.0 mi West 19.6 mph 24.2 mph N/A   Clear
4:33 AM 27.5 °F 15.0 °F 23.2 °F 84% 29.91 in 10.0 mi West 17.3 mph 23.0 mph N/A   Clear
4:53 AM 26.6 °F 13.4 °F 22.1 °F 83% 29.91 in 10.0 mi WNW 18.4 mph 24.2 mph N/A   Clear
5:12 AM 26.4 °F 13.6 °F 21.2 °F 81% 29.91 in 10.0 mi West 17.3 mph 21.9 mph N/A   Clear
5:33 AM 25.7 °F 12.3 °F 21.0 °F 82% 29.91 in 10.0 mi West 18.4 mph 24.2 mph N/A   Clear
5:53 AM 25.5 °F 12.0 °F 20.3 °F 81% 29.92 in 10.0 mi West 18.4 mph 24.2 mph N/A   Clear
6:12 AM 24.8 °F 11.5 °F 19.4 °F 80% 29.92 in 10.0 mi West 17.3 mph 23.0 mph N/A   Clear
6:33 AM 24.6 °F 11.3 °F 19.0 °F 79% 29.93 in 10.0 mi West 17.3 mph 24.2 mph N/A   Scattered Clouds
6:53 AM 23.9 °F 9.5 °F 18.9 °F 81% 29.93 in 10.0 mi West 19.6 mph 28.8 mph N/A   Clear
7:13 AM 24.6 °F 10.9 °F 18.9 °F 79% 29.94 in 10.0 mi WNW 18.4 mph 26.5 mph N/A   Clear
7:33 AM 24.4 °F 11.0 °F 18.3 °F 78% 29.94 in 10.0 mi West 17.3 mph 23.0 mph N/A   Mostly Cloudy
7:53 AM 24.3 °F 11.2 °F 17.2 °F 75% 29.94 in 10.0 mi West 16.1 mph 25.3 mph N/A   Mostly Cloudy
8:13 AM 23.7 °F 9.7 °F 16.7 °F 75% 29.95 in 10.0 mi West 18.4 mph 24.2 mph N/A   Scattered Clouds
8:32 AM 23.0 °F 8.3 °F 16.7 °F 77% 29.96 in 10.0 mi WNW 19.6 mph 26.5 mph N/A   Mostly Cloudy
8:53 AM 23.4 °F 8.4 °F 16.9 °F 76% 29.97 in 10.0 mi WNW 20.7 mph 28.8 mph N/A   Mostly Cloudy
9:13 AM 23.5 °F 9.0 °F 16.7 °F 75% 29.97 in 5.0 mi WNW 19.6 mph 25.3 mph N/A   Haze
9:32 AM 23.0 °F 8.7 °F 16.5 °F 76% 29.98 in 10.0 mi WNW 18.4 mph 24.2 mph N/A   Mostly Cloudy
9:52 AM 23.0 °F 8.3 °F 16.7 °F 77% 29.98 in 10.0 mi West 19.6 mph 26.5 mph N/A   Clear
10:13 AM 23.7 °F 9.3 °F 17.1 °F 76% 29.99 in 7.0 mi WNW 19.6 mph 24.2 mph N/A   Mostly Cloudy
10:32 AM 23.7 °F 8.5 °F 17.2 °F 76% 30.01 in 5.0 mi WNW 21.9 mph 31.1 mph N/A   Haze
10:53 AM 23.4 °F 7.7 °F 16.7 °F 76% 30.02 in 3.0 mi WNW 23.0 mph 28.8 mph N/A Snow Light Snow
11:13 AM 23.2 °F 8.6 °F 16.7 °F 76% 30.02 in 4.0 mi WNW 19.6 mph 29.9 mph N/A Snow Light Snow
11:33 AM 22.5 °F 6.9 °F 15.1 °F 73% 30.02 in 7.0 mi WNW 21.9 mph 28.8 mph N/A Snow Light Snow
11:52 AM 22.5 °F 8.5 °F 13.1 °F 67% 30.03 in 10.0 mi NW 17.3 mph 23.0 mph N/A   Scattered Clouds
12:12 PM 21.2 °F 6.8 °F 12.0 °F 68% 30.03 in 10.0 mi WNW 17.3 mph 25.3 mph N/A   Scattered Clouds
12:33 PM 21.9 °F 5.8 °F 12.2 °F 66% 30.04 in 7.0 mi WNW 23.0 mph 29.9 mph N/A   Mostly Cloudy
12:52 PM 21.2 °F 5.6 °F 10.9 °F 65% 30.03 in 7.0 mi WNW 20.7 mph 26.5 mph N/A   Scattered Clouds
1:13 PM 20.7 °F 4.5 °F 9.9 °F 63% 30.03 in 7.0 mi WNW 21.9 mph 29.9 mph N/A   Clear
1:32 PM 20.1 °F 4.2 °F 10.2 °F 66% 30.04 in 5.0 mi WNW 20.7 mph 31.1 mph N/A   Haze
1:52 PM 19.9 °F 4.8 °F 9.9 °F 65% 30.03 in 7.0 mi WNW 18.4 mph 28.8 mph N/A   Clear
2:13 PM 19.2 °F 4.3 °F 8.6 °F 63% 30.04 in 5.0 mi WNW 17.3 mph 26.5 mph N/A   Haze
2:33 PM 19.0 °F 4.0 °F 9.3 °F 66% 30.05 in 7.0 mi WNW 17.3 mph 24.2 mph N/A   Clear
2:53 PM 18.5 °F 5.5 °F 9.5 °F 68% 30.05 in 10.0 mi WNW 12.7 mph 21.9 mph N/A   Clear
3:12 PM 18.5 °F 2.9 °F 9.3 °F 67% 30.06 in 10.0 mi WNW 18.4 mph 23.0 mph N/A   Clear
3:33 PM 18.5 °F 3.8 °F 9.5 °F 68% 30.06 in 10.0 mi WNW 16.1 mph - N/A   Clear
3:53 PM 18.0 °F 5.4 °F 9.5 °F 70% 30.06 in 10.0 mi WNW 11.5 mph 16.1 mph N/A   Clear
4:12 PM 17.1 °F 5.0 °F 9.0 °F 71% 30.06 in 10.0 mi WNW 10.4 mph - N/A   Clear
4:33 PM 16.3 °F 5.7 °F 8.6 °F 72% 30.06 in 10.0 mi WNW 8.1 mph - N/A   Clear
4:53 PM 15.3 °F 6.6 °F 8.2 °F 74% 30.07 in 10.0 mi WNW 5.8 mph - N/A   Clear
5:12 PM 14.0 °F 6.5 °F 7.7 °F 76% 30.07 in 10.0 mi West 4.6 mph - N/A   Clear
5:33 PM 11.8 °F 1.3 °F 7.5 °F 83% 30.07 in 10.0 mi West 6.9 mph - N/A   Clear
5:53 PM 11.1 °F 4.9 °F 7.0 °F 83% 30.07 in 10.0 mi West 3.5 mph - N/A   Clear
6:12 PM 10.0 °F - 6.4 °F 85% 30.07 in 10.0 mi Calm Calm - N/A   Clear
6:33 PM 10.9 °F - 7.2 °F 85% 30.08 in 10.0 mi Calm Calm - N/A   Clear
6:53 PM 9.5 °F - 6.6 °F 88% 30.08 in 10.0 mi Calm Calm - N/A   Clear
7:13 PM 7.5 °F 0.8 °F 4.6 °F 88% 30.08 in 10.0 mi WSW 3.5 mph - N/A   Clear
7:32 PM 5.2 °F - 2.7 °F 89% 30.07 in 10.0 mi Calm Calm - N/A   Clear
7:53 PM 4.1 °F -5.1 °F 1.8 °F 90% 30.08 in 10.0 mi WSW 4.6 mph - N/A   Clear
8:12 PM 3.6 °F -3.8 °F 1.0 °F 89% 30.07 in 10.0 mi WSW 3.5 mph - N/A   Clear
8:33 PM 3.0 °F -4.4 °F -0.0 °F 87% 30.07 in 10.0 mi WSW 3.5 mph - N/A   Clear
8:53 PM 5.7 °F - 3.2 °F 89% 30.07 in 10.0 mi Calm Calm - N/A   Clear
9:12 PM 3.4 °F - 0.5 °F 88% 30.06 in 10.0 mi Calm Calm - N/A   Clear
9:33 PM 5.7 °F - 3.0 °F 89% 30.06 in 10.0 mi Calm Calm - N/A   Clear
9:53 PM 2.7 °F - -0.6 °F 86% 30.06 in 10.0 mi Calm Calm - N/A   Clear
10:13 PM 1.2 °F - -2.2 °F 86% 30.06 in 10.0 mi Calm Calm - N/A   Clear
10:32 PM 1.6 °F - -1.5 °F 87% 30.04 in 10.0 mi Calm Calm - N/A   Clear
10:53 PM 1.9 °F - -1.3 °F 86% 30.04 in 10.0 mi Calm Calm - N/A   Clear
11:13 PM 3.0 °F - 0.1 °F 88% 30.03 in 10.0 mi Calm Calm - N/A   Clear
11:33 PM 4.8 °F - 2.1 °F 89% 30.02 in 10.0 mi Calm Calm - N/A   Scattered Clouds
11:52 PM 5.0 °F - 2.3 °F 89% 30.02 in 10.0 mi Calm Calm - N/A   Scattered Clouds